| time (UTC) | temp F | wind direction | speed knots | gust knots | rain 1hr in | rain 24hr in | rain mn in | humidity % | barometer mb |
| 20260507140117 | 56 | 86 | 1.7 | 6.1 | 0.00 | 0.00 | 0.00 | 89 | 1013.8 |
| 20260507134519 | 56 | 74 | 2.6 | 5.2 | 0.00 | 0.00 | 0.00 | 90 | 1013.8 |
| 20260507133016 | 56 | 74 | 2.6 | 4.3 | 0.00 | 0.00 | 0.00 | 89 | 1013.6 |
| 20260507131516 | 55 | 75 | 2.6 | 5.2 | 0.00 | 0.00 | 0.00 | 89 | 1013.6 |
| 20260507130013 | 55 | 82 | 1.7 | 4.3 | 0.00 | 0.00 | 0.00 | 89 | 1013.5 |
| 20260507124512 | 56 | 80 | 1.7 | 4.3 | 0.00 | 0.00 | 0.00 | 88 | 1013.3 |
| 20260507123013 | 56 | 80 | 1.7 | 4.3 | 0.00 | 0.00 | 0.00 | 88 | 1013.3 |
| 20260507121509 | 56 | 74 | 1.7 | 4.3 | 0.00 | 0.00 | 0.00 | 88 | 1013.3 |
| 20260507120007 | 56 | 74 | 2.6 | 4.3 | 0.00 | 0.00 | 0.00 | 88 | 1013.3 |
| 20260507114509 | 57 | 46 | 1.7 | 4.3 | 0.00 | 0.00 | 0.00 | 88 | 1013.2 |
| 20260507113012 | 57 | 36 | 1.7 | 2.6 | 0.00 | 0.00 | 0.00 | 87 | 1013.3 |
| 20260507111503 | 57 | 37 | 0.9 | 1.7 | 0.00 | 0.00 | 0.00 | 87 | 1013.4 |
| 20260507110001 | 57 | 36 | 1.7 | 3.5 | 0.00 | 0.00 | 0.00 | 87 | 1013.3 |
| 20260507104559 | 57 | 36 | 1.7 | 4.3 | 0.00 | 0.00 | 0.00 | 87 | 1013.4 |
| 20260507103058 | 57 | 311 | 1.7 | 3.5 | 0.00 | 0.00 | 0.00 | 87 | 1013.6 |
| 20260507101603 | 58 | 307 | 1.7 | 3.5 | 0.00 | 0.00 | 0.00 | 87 | 1013.6 |
| 20260507100057 | 58 | 306 | 0.9 | 2.6 | 0.00 | 0.00 | 0.00 | 87 | 1013.6 |
| 20260507094552 | 58 | 306 | 0.9 | 2.6 | 0.00 | 0.00 | 0.00 | 86 | 1013.7 |
| 20260507093050 | 58 | 298 | 0.0 | 1.7 | 0.00 | 0.00 | 0.00 | 86 | 1013.8 |
| 20260507091549 | 58 | 298 | 0.0 | 2.6 | 0.00 | 0.00 | 0.00 | 86 | 1014.0 |
| 20260507090048 | 59 | 298 | 0.0 | 0.0 | 0.00 | 0.00 | 0.00 | 85 | 1014.0 |
| 20260507084554 | 59 | 298 | 0.0 | 0.0 | 0.00 | 0.00 | 0.00 | 85 | 1014.3 |
| 20260507083041 | 60 | 298 | 0.0 | 0.0 | 0.00 | 0.00 | 0.00 | 85 | 1014.4 |
| 20260507081543 | 60 | 298 | 0.0 | 0.0 | 0.00 | 0.00 | 0.00 | 85 | 1014.5 |
| 20260507080041 | 61 | 298 | 0.0 | 0.0 | 0.00 | 0.00 | 0.00 | 85 | 1014.6 |
| 20260507074536 | 61 | 298 | 0.0 | 1.7 | 0.00 | 0.00 | 0.00 | 85 | 1014.6 |
| 20260507073034 | 61 | 298 | 0.0 | 0.0 | 0.00 | 0.00 | 0.00 | 85 | 1014.7 |
| 20260507071532 | 62 | 298 | 0.0 | 2.6 | 0.00 | 0.00 | 0.00 | 84 | 1014.5 |
| 20260507070032 | 62 | 291 | 0.9 | 2.6 | 0.00 | 0.00 | 0.00 | 84 | 1014.7 |
| 20260507064528 | 62 | 290 | 0.0 | 2.6 | 0.00 | 0.00 | 0.00 | 84 | 1014.8 |
| 20260507063028 | 62 | 290 | 1.7 | 3.5 | 0.00 | 0.00 | 0.00 | 84 | 1014.9 |
| 20260507061527 | 62 | 292 | 1.7 | 3.5 | 0.00 | 0.00 | 0.00 | 83 | 1014.8 |
| 20260507060026 | 63 | 294 | 2.6 | 3.5 | 0.00 | 0.00 | 0.00 | 82 | 1014.8 |
| 20260507054534 | 64 | 303 | 0.9 | 4.3 | 0.00 | 0.00 | 0.00 | 80 | 1014.8 |
| 20260507053024 | 63 | 306 | 0.9 | 2.6 | 0.00 | 0.00 | 0.00 | 81 | 1014.9 |
| 20260507051525 | 63 | 306 | 1.7 | 3.5 | 0.00 | 0.00 | 0.00 | 81 | 1014.9 |
| 20260507050028 | 64 | 309 | 1.7 | 3.5 | 0.00 | 0.00 | 0.00 | 79 | 1014.9 |
| 20260507044523 | 64 | 309 | 0.9 | 3.5 | 0.00 | 0.00 | 0.00 | 76 | 1014.8 |
| 20260507043024 | 65 | 313 | 0.0 | 1.7 | 0.00 | 0.00 | 0.00 | 75 | 1014.7 |
| 20260507041522 | 65 | 313 | 0.9 | 3.5 | 0.00 | 0.00 | 0.00 | 74 | 1014.8 |
| 20260507040021 | 64 | 313 | 0.9 | 4.3 | 0.00 | 0.00 | 0.00 | 79 | 1014.6 |
| 20260507034522 | 64 | 298 | 1.7 | 7.0 | 0.00 | 0.00 | 0.00 | 81 | 1014.4 |
| 20260507033024 | 64 | 288 | 2.6 | 5.2 | 0.00 | 0.00 | 0.00 | 81 | 1014.2 |
| 20260507031520 | 64 | 296 | 4.3 | 7.8 | 0.00 | 0.00 | 0.00 | 81 | 1014.1 |
| 20260507030020 | 64 | 298 | 4.3 | 7.8 | 0.00 | 0.00 | 0.00 | 80 | 1014.0 |
| 20260507024519 | 64 | 300 | 4.3 | 8.7 | 0.00 | 0.00 | 0.00 | 80 | 1013.9 |
| 20260507023118 | 65 | 317 | 5.2 | 9.6 | 0.00 | 0.00 | 0.00 | 77 | 1013.8 |
| 20260507021517 | 66 | 306 | 6.1 | 10.4 | 0.00 | 0.00 | 0.00 | 74 | 1013.7 |
| 20260507020018 | 67 | 305 | 5.2 | 9.6 | 0.00 | 0.00 | 0.00 | 69 | 1013.7 |
| 20260507014526 | 69 | 286 | 6.1 | 9.6 | 0.00 | 0.00 | 0.00 | 69 | 1013.5 |
| 20260507013037 | 68 | 275 | 5.2 | 10.4 | 0.00 | 0.00 | 0.00 | 69 | 1013.5 |
| 20260507011517 | 69 | 304 | 6.1 | 10.4 | 0.00 | 0.00 | 0.00 | 67 | 1013.6 |
| 20260507010023 | 69 | 319 | 5.2 | 9.6 | 0.00 | 0.00 | 0.00 | 67 | 1013.5 |
| 20260507004512 | 70 | 317 | 6.1 | 10.4 | 0.00 | 0.00 | 0.00 | 64 | 1013.5 |
| 20260507003011 | 70 | 261 | 6.1 | 11.3 | 0.00 | 0.00 | 0.00 | 66 | 1013.4 |
| 20260507001611 | 69 | 271 | 7.8 | 11.3 | 0.00 | 0.00 | 0.00 | 66 | 1013.3 |
| 20260507000008 | 69 | 331 | 6.1 | 11.3 | 0.00 | 0.00 | 0.00 | 67 | 1013.3 |
| 20260506234506 | 70 | 316 | 6.1 | 10.4 | 0.00 | 0.00 | 0.00 | 66 | 1013.3 |
| 20260506233007 | 69 | 285 | 7.8 | 11.3 | 0.00 | 0.00 | 0.00 | 65 | 1013.4 |
| 20260506231502 | 71 | 249 | 7.0 | 13.9 | 0.00 | 0.00 | 0.00 | 62 | 1013.4 |
| 20260506230059 | 69 | 280 | 7.0 | 13.0 | 0.00 | 0.00 | 0.00 | 65 | 1013.4 |
| 20260506224559 | 70 | 292 | 10.4 | 15.6 | 0.00 | 0.00 | 0.00 | 65 | 1013.4 |
| 20260506223055 | 69 | 264 | 8.7 | 13.9 | 0.00 | 0.00 | 0.00 | 66 | 1013.7 |
| 20260506221553 | 68 | 275 | 7.0 | 14.8 | 0.00 | 0.00 | 0.00 | 67 | 1013.7 |
| 20260506220051 | 68 | 275 | 10.4 | 13.9 | 0.00 | 0.00 | 0.00 | 66 | 1013.9 |
| 20260506214553 | 68 | 283 | 8.7 | 13.0 | 0.00 | 0.00 | 0.00 | 66 | 1014.0 |
| 20260506213108 | 68 | 252 | 8.7 | 13.9 | 0.00 | 0.00 | 0.00 | 67 | 1014.1 |
| 20260506211548 | 68 | 298 | 9.6 | 13.0 | 0.00 | 0.00 | 0.00 | 66 | 1014.2 |
| 20260506210045 | 67 | 285 | 8.7 | 13.9 | 0.00 | 0.00 | 0.00 | 68 | 1014.3 |
| 20260506204543 | 67 | 247 | 7.0 | 13.9 | 0.00 | 0.00 | 0.00 | 68 | 1014.4 |
| 20260506203042 | 68 | 259 | 7.8 | 13.9 | 0.00 | 0.00 | 0.00 | 66 | 1014.5 |
| 20260506201542 | 68 | 293 | 7.8 | 14.8 | 0.00 | 0.00 | 0.00 | 66 | 1014.5 |
| 20260506200039 | 68 | 244 | 9.6 | 13.0 | 0.00 | 0.00 | 0.00 | 66 | 1014.5 |
| 20260506194539 | 67 | 230 | 7.8 | 14.8 | 0.00 | 0.00 | 0.00 | 67 | 1014.7 |
| 20260506193039 | 67 | 254 | 10.4 | 14.8 | 0.00 | 0.00 | 0.00 | 66 | 1014.9 |
| 20260506191540 | 68 | 257 | 8.7 | 14.8 | 0.00 | 0.00 | 0.00 | 65 | 1015.0 |
| 20260506190036 | 67 | 299 | 7.0 | 12.2 | 0.00 | 0.00 | 0.00 | 66 | 1015.0 |
| 20260506184546 | 67 | 275 | 7.8 | 12.2 | 0.00 | 0.00 | 0.00 | 67 | 1015.1 |
| 20260506183050 | 67 | 243 | 7.8 | 12.2 | 0.00 | 0.00 | 0.00 | 67 | 1015.2 |
| 20260506181555 | 67 | 257 | 7.0 | 13.0 | 0.00 | 0.00 | 0.00 | 67 | 1015.3 |
| 20260506180035 | 67 | 271 | 7.0 | 13.9 | 0.00 | 0.00 | 0.00 | 67 | 1015.6 |
| 20260506174530 | 66 | 246 | 6.1 | 12.2 | 0.00 | 0.01 | 0.00 | 66 | 1015.6 |
| 20260506173031 | 66 | 277 | 6.1 | 10.4 | 0.00 | 0.01 | 0.00 | 65 | 1015.6 |
| 20260506171529 | 66 | 284 | 5.2 | 9.6 | 0.00 | 0.01 | 0.00 | 64 | 1015.7 |
| 20260506170027 | 66 | 291 | 3.5 | 8.7 | 0.00 | 0.01 | 0.00 | 65 | 1015.6 |
| 20260506164534 | 65 | 323 | 3.5 | 7.8 | 0.00 | 0.01 | 0.00 | 66 | 1015.6 |
| 20260506163025 | 64 | 297 | 1.7 | 5.2 | 0.00 | 0.01 | 0.00 | 66 | 1015.7 |
| 20260506161518 | 63 | 285 | 0.0 | 3.5 | 0.00 | 0.01 | 0.00 | 69 | 1015.7 |
| 20260506160017 | 62 | 284 | 0.9 | 3.5 | 0.00 | 0.01 | 0.00 | 70 | 1015.7 |
| 20260506154513 | 62 | 88 | 0.9 | 3.5 | 0.00 | 0.01 | 0.00 | 71 | 1015.7 |
| 20260506153018 | 60 | 92 | 1.7 | 3.5 | 0.00 | 0.01 | 0.00 | 75 | 1015.8 |
| 20260506151507 | 59 | 75 | 2.6 | 5.2 | 0.00 | 0.01 | 0.00 | 78 | 1015.8 |
| 20260506150006 | 57 | 71 | 0.9 | 4.3 | 0.00 | 0.01 | 0.00 | 81 | 1015.8 |
| 20260506144513 | 56 | 68 | 3.5 | 5.2 | 0.00 | 0.01 | 0.00 | 82 | 1015.8 |
| 20260506143004 | 55 | 55 | 2.6 | 5.2 | 0.00 | 0.01 | 0.00 | 83 | 1015.8 |
| 20260506141503 | 55 | 77 | 4.3 | 7.0 | 0.00 | 0.01 | 0.00 | 84 | 1015.8 |